STARLINK-1672 (46537 NORAD) Tracking and Keplerian Element Data

This shows tracking and keplerian element data for the satellite.

Feedback or suggestion? Click here.




ElementValue
Catalog46537
NameSTARLINK-1672
Epoch Orbit428
Epoch Day304.50002315
Epoch Year2020
RAAN323.9588
Inclination52.9989
Eccentricity0.0001416
Argument of Perigee61.6826
Mean Anonmoly23.6854
Mean Motion15.62694868
Decay Rate0.00086774
L11 46537U 20070F 20304.50002315 .00086774 00000-0 94552-3 0 9999
L22 46537 52.9989 323.9588 0001416 61.6826 23.6854 15.62694868 4285

Live tracking and technical data element details for STARLINK-1672 (NORAD 46537). STARLINK-1672 can be tracked NOW for your location showing map with azimuth and elevation plus other details from your city location.

Track the satellite on the map from your city or location and see movement details for azimuth, elevation, latitude, longitude, range, height, and movement on the map or in text.







IsCatalogInMostPopularTable: catalog: 46537, numindb: 3
Update: records affected: 1



GetName: 46537 STARLINK-1672

Hit Count: updated at: Sat, 31 Oct 2020 07:52:44 GMT